Orbital Elements
Epoch 2011 Dec. 25.0 TT = JDT 2455920.5
T 2012 Jan. 5.18710 TT MPCW
q 2.2864838 (2000.0) P Q
n 0.15030525 Peri. 153.48151 -0.71110402 +0.68790609
a 3.5033750 Node 70.78292 -0.66931295 -0.59904072
e 0.3473483 Incl. 8.85239 -0.21529340 -0.40979925
P 6.56
From 33 observations 2005 Apr. 4-2018 Mar. 21, mean residual 0".4.
|